Wind_Speed
16 17 18 18 16 13 12 12 14 15 14 13 12 13 15 15 14 12 11 13 14 17 20 20 22 25 21 18 15 16 21 24 22 20 19 18 18 19 20 21 21 22 21 21 25 28 29 29 30 31 31 32 32 32 32 33 32 32 32 31 31 30 30 29 30 30 30 30 30 30 29 28 28 28 29 30 29 28 29 29 28 27 27 27 27 28
17 18 17 16 14 12 12 14 16 16 15 15 15 15 15 14 13 11 12 13 14 17 20 20 23 26 22 19 17 17 21 23 22 21 20 19 19 19 19 19 19 20 21 23 25 27 29 31 31 32 33 33 33 33 34 34 33 33 33 33 32 32 32 31 31 31 31 32 31 31 31 30 30 30 30 30 30 30 30 30 29 29 28 28 28 29
17 19 17 14 14 14 15 18 18 17 16 16 15 15 15 13 11 11 11 13 13 16 20 21 24 26 23 21 20 19 21 22 21 22 21 20 19 17 17 17 19 21 22 23 24 26 29 32 33 34 35 36 36 36 36 36 36 35 35 34 34 33 33 32 32 32 33 33 33 33 33 33 32 32 31 31 32 32 31 31 30 30 29 29 29 30
18 17 16 16 16 15 17 19 19 18 18 17 16 15 14 12 9 9 11 13 14 16 20 22 27 29 25 23 22 21 23 22 19 20 20 18 17 15 16 19 21 23 23 23 24 26 29 31 34 35 36 37 38 38 38 37 37 37 36 36 36 35 34 35 34 34 34 34 35 35 35 35 35 34 34 34 34 33 32 32 31 30 30 30 31 32
20 16 15 16 17 18 19 20 20 19 18 16 16 15 12 11 9 10 13 14 17 19 21 23 26 28 27 24 23 22 22 20 18 19 18 16 16 16 18 21 22 23 23 23 24 27 30 31 33 35 35 36 37 38 37 36 36 36 36 36 37 37 37 37 36 36 36 36 36 37 37 38 37 36 36 35 34 33 34 34 33 32 31 31 32 34
22 21 18 16 15 17 20 21 20 17 17 15 15 14 12 11 11 12 12 14 16 17 19 18 13 19 28 26 23 23 22 21 19 20 19 15 16 18 20 20 21 22 23 23 23 25 28 30 31 32 33 34 34 34 34 34 34 34 34 35 35 36 37 38 38 38 39 39 39 39 39 39 38 37 37 36 35 34 35 36 35 34 33 33 33 34
25 24 22 21 17 15 17 18 17 14 14 14 14 13 12 12 12 12 12 12 12 11 17 18 9 15 31 30 24 24 24 22 21 19 17 14 16 20 21 20 20 22 23 23 21 22 24 26 27 28 29 30 30 31 31 31 31 32 32 33 34 35 36 36 37 38 39 40 40 41 40 40 40 39 37 36 36 37 37 37 37 36 35 34 34 35
25 24 24 25 22 20 19 16 14 13 14 15 15 13 13 13 12 11 12 12 14 17 21 24 17 15 26 30 25 25 25 23 20 16 14 15 18 20 20 20 20 21 22 22 21 20 20 21 23 24 25 27 28 28 29 29 29 29 30 31 32 33 34 35 36 37 38 38 39 40 41 42 41 40 38 38 38 39 39 39 38 37 36 35 35 35
23 22 24 25 24 25 24 18 15 15 17 17 16 15 13 12 11 11 12 14 17 20 16 16 15 10 20 32 29 27 29 25 18 15 14 16 19 19 19 19 19 19 21 21 21 20 20 20 21 22 23 24 26 26 26 27 27 28 28 29 30 31 32 33 34 36 37 38 38 39 41 42 41 41 40 40 40 40 40 40 39 37 35 35 35 35
22 21 22 23 25 26 23 19 18 18 19 19 17 15 12 10 10 11 14 16 17 16 10 10 12 9 19 34 34 31 30 25 18 14 13 15 17 18 16 16 16 18 21 21 21 20 20 20 21 22 23 23 25 25 26 27 27 28 28 28 29 29 30 31 31 33 34 36 37 38 39 40 41 41 41 41 41 41 41 41 39 37 35 35 35 35
26 23 21 22 23 23 22 20 21 21 21 19 16 12 10 11 12 12 15 15 12 10 7 8 11 9 11 17 23 28 24 19 17 14 13 16 16 14 12 14 16 18 20 20 20 20 20 21 22 23 24 25 26 26 26 27 26 27 27 27 27 27 28 28 29 30 31 33 34 35 37 38 39 40 41 41 42 41 41 40 39 37 36 35 35 35
28 26 26 26 25 23 22 22 22 22 22 19 15 11 8 8 9 11 13 10 6 4 3 5 9 11 14 14 18 26 24 21 24 22 19 17 13 11 12 16 18 19 20 20 21 22 23 25 26 26 26 25 25 25 24 24 24 24 24 24 25 25 26 26 26 27 29 30 31 32 34 36 37 39 39 40 41 41 41 40 39 37 36 36 36 36
31 32 30 29 29 29 26 23 21 21 21 18 16 13 9 5 4 6 6 3 6 8 6 6 7 14 31 38 35 36 33 30 29 25 19 17 13 10 14 19 20 19 20 22 23 25 27 28 27 27 25 24 23 23 22 22 22 23 23 24 24 25 25 25 25 25 26 28 29 30 31 33 35 36 37 39 40 40 41 40 39 37 36 36 36 36
28 30 34 35 34 33 30 28 26 23 22 22 22 20 14 6 2 4 3 1 6 10 11 11 9 16 34 42 37 31 26 21 18 15 11 18 17 12 17 21 21 21 21 23 24 24 27 28 26 24 24 23 22 22 22 21 22 23 23 24 24 24 25 24 24 24 25 26 26 28 30 32 33 33 35 38 39 40 40 40 39 37 36 36 36 36
22 21 30 35 35 36 36 34 32 29 25 24 26 25 21 18 12 6 3 2 3 3 6 10 9 13 21 26 25 22 21 21 20 19 15 17 21 21 20 21 21 21 23 24 24 23 26 27 25 24 24 24 22 21 21 21 22 23 23 24 23 23 24 24 23 24 24 25 26 27 29 31 31 32 35 37 38 39 40 40 39 37 35 35 35 36
25 24 28 28 27 31 33 33 34 32 26 25 26 26 28 30 26 13 7 8 3 2 5 11 15 27 34 37 39 36 37 38 35 36 32 27 27 23 18 21 21 22 26 26 23 22 26 27 27 25 24 23 22 22 22 22 23 23 23 23 24 24 24 24 23 23 23 24 25 26 28 30 30 32 34 35 36 38 39 40 39 36 35 35 35 37
23 26 30 27 26 27 26 26 30 30 26 26 28 33 35 33 27 18 11 10 6 3 10 15 25 44 47 45 49 44 41 39 34 33 28 20 18 17 15 17 20 25 28 25 21 23 27 29 28 26 23 22 22 21 22 22 23 23 24 25 25 25 25 25 24 24 24 25 25 26 27 29 30 31 33 34 35 36 37 38 38 36 35 35 36 37
25 24 28 26 25 28 27 25 27 29 29 29 31 35 35 28 23 20 9 4 5 5 10 17 29 42 37 34 42 40 32 31 27 23 22 20 22 22 18 15 16 22 25 24 22 24 29 31 29 25 23 22 21 21 21 21 22 23 25 26 26 26 25 25 25 25 25 26 26 26 27 27 29 31 33 34 34 34 35 36 37 36 35 35 36 37
32 25 25 24 22 23 25 26 27 29 32 34 33 31 26 17 14 19 13 4 6 5 4 15 26 34 38 42 46 42 37 37 34 30 29 26 23 20 15 12 13 18 23 24 24 26 29 31 29 25 23 21 20 20 21 21 22 24 25 26 26 26 26 25 25 25 26 26 27 26 27 27 28 31 33 35 35 35 33 33 35 37 36 36 37 37
35 26 20 22 24 21 24 29 32 34 35 36 35 29 25 20 14 20 22 14 9 5 4 11 12 23 44 51 46 43 41 39 35 29 24 16 13 13 13 13 17 23 26 26 25 26 29 29 27 24 22 20 21 23 24 25 25 25 26 27 27 27 27 27 26 26 26 27 27 27 27 28 28 31 34 36 37 37 35 33 35 37 37 37 37 38
38 31 22 20 22 22 27 32 34 37 35 35 37 33 32 31 22 19 24 26 17 5 4 6 6 22 46 47 41 42 39 34 28 20 15 12 12 15 16 16 24 26 25 23 22 24 27 28 25 22 21 21 23 26 28 28 28 28 27 27 28 28 28 28 28 28 28 28 28 28 28 29 29 30 33 35 37 37 37 36 35 37 39 39 38 38
38 38 32 27 26 29 35 37 35 35 34 34 38 37 37 39 34 20 14 26 28 13 6 5 5 27 48 44 41 43 38 34 27 19 17 16 17 21 20 24 26 22 22 20 21 24 28 29 25 21 21 23 26 27 29 31 32 32 30 28 29 29 29 30 30 30 30 30 30 29 29 29 30 31 32 34 35 36 37 37 36 37 39 40 39 38
35 38 36 36 38 39 39 38 34 33 34 35 37 38 39 42 44 31 12 15 24 22 19 12 7 30 51 45 44 47 42 36 29 23 22 18 19 24 26 28 25 21 21 20 22 26 29 29 25 22 24 27 28 30 31 34 36 34 33 32 32 31 31 32 32 32 32 32 31 31 30 30 30 31 32 33 34 34 35 36 37 38 39 40 40 39
30 33 32 33 36 36 35 36 35 32 32 35 39 42 42 43 46 40 25 18 17 19 24 14 6 31 51 46 46 50 46 40 34 30 27 23 24 27 28 29 25 21 20 21 24 29 31 31 27 25 29 31 32 33 35 39 40 36 36 36 35 35 34 35 34 33 33 33 33 33 32 32 31 32 33 33 33 33 33 35 37 38 39 40 40 40
28 32 30 22 16 17 21 24 29 34 36 37 41 41 42 45 44 40 38 31 19 20 27 16 10 34 51 46 47 50 47 45 40 35 33 31 31 30 25 24 23 23 24 24 26 30 33 34 29 29 35 37 36 35 38 41 42 39 37 37 37 37 38 38 36 36 36 35 35 35 34 34 33 33 33 33 33 32 32 34 36 37 38 39 41 41
27 31 32 23 12 10 13 15 24 36 40 40 43 43 43 45 44 43 44 33 22 30 37 26 23 42 54 49 50 52 49 49 46 42 40 39 37 33 28 25 26 29 30 28 27 31 35 37 33 33 38 39 38 38 39 41 41 41 39 38 38 38 38 39 38 38 38 37 37 36 36 36 35 34 34 34 34 34 33 33 34 36 38 39 40 40
27 28 32 32 30 28 30 31 32 35 35 37 42 44 45 46 46 47 42 33 33 40 42 41 43 52 57 53 51 51 50 50 50 48 47 46 41 35 30 30 33 35 33 31 30 31 35 38 37 37 39 39 40 42 42 41 41 42 41 40 40 39 38 39 40 40 39 39 38 37 37 37 36 36 35 35 35 35 35 34 34 35 37 38 39 39
28 30 32 35 38 41 44 44 39 36 35 37 38 40 42 44 47 48 44 43 46 39 34 47 56 55 57 55 50 50 51 50 51 50 48 47 44 38 35 34 35 35 34 34 34 33 35 38 40 41 40 39 43 45 44 43 42 42 43 42 41 40 39 39 40 40 40 40 39 37 36 37 37 37 36 36 36 36 36 35 34 34 36 37 38 38
29 34 38 37 38 42 45 45 43 41 40 39 38 38 39 40 44 48 48 50 52 44 43 54 57 55 56 55 52 52 51 49 50 48 46 46 45 42 37 33 34 34 34 37 37 36 37 39 42 44 41 41 45 45 43 44 44 44 44 44 43 42 41 41 40 40 39 39 39 38 37 36 36 37 38 37 36 36 35 35 34 34 34 35 37 37
30 35 41 39 38 42 46 47 46 44 44 44 42 38 36 36 40 44 47 49 52 53 56 57 55 56 57 54 54 54 50 50 52 50 49 49 48 45 39 36 39 40 39 37 36 37 39 42 45 44 43 44 45 44 44 45 46 47 47 47 46 44 43 42 41 40 39 38 38 38 37 35 34 35 37 38 37 36 35 35 35 35 34 34 36 37
34 35 38 36 34 40 48 51 49 45 43 44 44 41 40 39 40 45 48 49 51 54 56 55 56 60 59 56 56 55 52 54 55 55 54 53 52 52 48 47 47 44 40 36 36 41 46 47 46 43 43 44 43 43 45 47 48 49 49 49 48 45 43 43 42 41 39 37 37 37 36 35 34 33 34 36 37 37 36 36 36 36 35 35 36 37
36 35 37 36 30 37 49 51 48 46 41 40 45 47 48 50 50 51 51 50 50 51 52 53 58 62 63 60 58 57 58 59 59 60 59 57 57 56 54 52 48 44 42 40 41 45 47 45 42 41 43 44 43 45 47 48 50 49 48 49 49 47 45 45 44 43 41 38 37 37 36 35 34 33 33 34 35 37 38 37 37 37 37 37 37 38
34 33 37 36 30 35 47 47 45 40 29 31 46 55 58 61 58 53 52 53 55 55 53 55 59 63 64 61 60 62 62 61 62 62 61 60 61 58 54 51 47 46 46 46 47 47 45 42 41 42 44 44 44 45 46 48 48 47 46 47 47 46 46 45 45 44 42 40 38 37 36 35 34 33 33 33 34 36 37 38 38 38 38 38 39 39
35 33 34 34 29 31 40 42 37 26 17 28 47 55 56 58 55 53 57 62 64 62 59 60 63 64 63 63 65 66 64 62 62 63 62 62 62 59 55 51 49 50 50 50 51 49 45 42 42 44 45 43 43 44 45 45 44 42 42 42 42 43 43 43 44 44 43 41 39 38 37 36 35 34 33 34 34 35 37 38 38 38 39 39 40 41
39 37 35 34 32 31 36 33 19 12 22 40 47 46 47 50 51 53 58 62 64 63 60 60 63 66 67 67 67 66 64 63 64 64 63 61 59 58 56 53 52 51 50 49 48 45 42 42 43 45 43 41 42 44 43 41 40 40 40 40 41 42 42 43 44 44 44 43 41 40 39 38 37 35 34 34 34 35 36 38 39 39 40 40 40 41
42 41 38 38 35 29 27 23 14 14 29 40 41 41 44 45 46 49 52 55 58 57 57 59 63 65 65 64 63 64 64 64 64 63 60 57 55 54 52 50 48 45 44 43 40 39 40 42 43 43 41 41 42 42 40 39 39 39 40 40 40 41 41 42 43 43 42 41 41 40 40 39 38 36 35 35 34 35 36 37 39 40 40 41 41 41
45 44 41 39 36 31 27 28 29 30 33 39 44 47 48 48 47 45 45 49 51 49 50 55 58 58 57 57 57 57 56 57 57 56 54 52 50 47 44 42 41 40 41 40 38 39 40 41 41 41 40 41 40 39 38 39 39 39 39 37 36 37 37 38 38 38 38 37 38 38 38 37 36 35 34 34 33 34 34 36 37 38 39 41 41 41
47 46 45 41 37 36 34 28 22 19 23 38 52 53 48 48 48 43 40 44 47 45 46 51 53 53 51 49 47 45 44 46 49 50 49 46 44 41 39 37 37 38 39 38 39 40 41 41 40 40 40 40 38 38 38 39 39 38 36 35 34 34 34 34 35 35 35 35 35 35 35 35 34 34 33 33 33 33 34 35 35 36 37 39 40 41
48 48 49 46 39 38 36 26 16 17 27 42 54 54 47 45 46 39 32 38 45 44 42 45 48 47 44 42 40 39 39 42 45 46 43 39 37 36 36 36 34 34 35 36 38 39 39 40 40 39 39 39 38 38 38 37 37 35 34 34 34 33 33 34 34 35 35 35 35 35 34 34 34 34 34 34 34 34 34 35 35 35 36 37 39 40
45 48 51 52 48 46 42 32 26 30 38 47 55 55 49 48 44 28 20 28 40 39 38 42 43 40 39 39 37 37 38 41 42 41 39 36 34 32 31 32 31 31 33 35 37 37 38 38 37 37 37 36 36 37 37 36 36 35 35 34 34 33 33 33 34 34 34 34 34 34 34 35 35 35 35 34 34 34 34 34 34 35 36 36 38 39
40 48 51 54 55 53 47 39 34 37 44 51 55 56 54 49 35 26 29 41 48 45 46 51 49 45 45 44 43 42 41 41 40 38 38 37 35 31 28 27 28 30 32 33 35 35 34 33 33 33 34 34 35 36 36 36 36 36 36 35 34 34 34 33 34 34 33 34 33 33 33 33 33 33 33 32 32 32 32 32 32 33 33 34 35 36
34 40 44 51 53 51 50 46 39 40 49 53 53 55 55 44 35 38 50 60 58 55 56 56 54 53 52 49 48 47 45 42 38 37 37 37 36 32 28 25 26 29 31 33 34 33 31 31 32 32 34 35 36 37 37 37 36 35 35 34 34 34 34 34 33 33 32 32 32 31 31 31 30 30 30 29 29 29 28 28 28 28 29 29 30 30
30 30 32 41 46 45 44 38 26 27 42 49 48 52 53 48 46 53 60 59 56 57 57 55 56 56 53 51 50 48 45 42 39 37 36 35 35 35 33 32 31 32 33 35 35 33 32 33 34 35 36 37 37 37 36 35 34 34 33 33 34 34 33 33 32 31 30 29 28 27 27 26 26 26 26 26 25 24 23 22 21 21 22 23 24 24
32 30 29 34 36 33 32 30 26 30 39 40 39 43 45 45 48 52 52 52 54 54 53 54 55 53 51 50 48 45 42 42 41 37 34 34 35 36 38 38 36 34 34 35 34 34 35 36 37 38 38 38 37 35 34 33 33 33 33 33 33 32 31 30 29 28 27 26 25 25 25 25 25 25 25 24 23 21 20 19 18 18 19 20 21 21
30 30 31 32 31 27 26 28 33 40 42 38 38 41 40 38 39 41 44 48 49 49 51 52 51 50 50 48 46 45 44 43 40 36 33 36 37 35 35 36 36 35 35 34 34 36 37 37 38 38 37 37 35 34 33 32 32 32 32 32 31 29 28 27 26 26 25 24 23 23 22 23 23 22 22 21 20 19 19 18 18 18 19 20 20 20
38 37 37 36 33 30 28 27 27 31 35 38 41 44 43 40 38 39 42 45 47 49 51 51 49 48 48 46 46 46 45 41 38 36 35 36 35 33 33 35 36 36 37 36 36 36 36 36 36 36 35 34 33 32 32 31 31 30 29 28 27 25 25 24 23 23 22 21 21 20 20 20 20 20 19 19 19 19 18 17 17 17 17 17 17 17
50 50 48 47 45 41 38 34 30 29 31 32 34 38 41 44 45 46 46 48 49 51 50 48 46 46 47 47 46 44 42 40 38 37 35 34 33 33 35 36 37 38 39 39 38 37 36 35 34 32 32 30 29 29 29 28 27 26 24 23 22 21 21 20 20 20 20 20 20 19 19 19 19 19 19 19 18 18 16 16 15 15 14 14 13 13
41 43 42 43 45 45 45 47 46 44 41 38 36 35 36 38 42 47 50 52 52 49 46 45 47 48 49 48 46 43 42 41 38 35 33 32 34 36 37 38 39 40 41 41 40 37 35 33 31 29 28 27 26 26 26 24 23 21 20 20 19 19 19 18 18 19 19 19 19 19 18 18 18 17 17 16 15 15 14 13 13 13 12 12 12 11
30 33 32 33 38 39 41 46 48 46 43 42 40 38 36 36 37 39 44 51 54 51 48 46 47 49 49 47 46 45 43 40 38 35 34 34 36 38 40 41 41 41 40 39 36 34 33 31 29 27 26 24 24 23 22 21 21 20 20 19 19 18 19 18 18 19 18 18 17 16 16 15 14 14 13 13 12 12 12 11 11 11 11 11 10 10
33 34 31 31 35 35 34 36 36 35 36 40 41 39 36 37 37 35 34 38 44 48 50 49 46 44 43 44 44 44 41 38 37 36 37 38 38 38 39 39 38 38 37 35 34 32 30 28 26 25 24 23 22 22 21 21 20 20 20 20 19 19 19 18 18 17 16 15 14 13 13 12 12 11 11 11 11 11 10 10 9 9 9 10 10 10
43 42 36 34 36 34 30 29 29 29 31 34 37 37 35 34 36 34 31 30 30 32 36 40 41 41 41 42 42 42 41 38 38 39 40 40 39 38 38 37 35 33 30 29 28 27 25 24 23 23 22 22 22 22 22 22 21 21 20 20 20 19 18 17 16 14 13 13 12 11 12 12 11 11 11 11 10 10 10 9 9 10 10 10 11 11
Wind_Direction
215 219 220 222 226 230 231 228 230 234 234 234 235 237 241 246 252 257 260 262 266 270 270 270 272 272 270 266 260 255 259 265 270 272 272 269 268 268 268 269 269 269 267 259 254 254 256 256 256 256 256 255 254 254 254 254 255 256 256 256 255 255 254 252 251 250 250 250 250 251 252 253 253 254 256 259 260 261 261 261 260 258 257 256 257 257
218 222 224 226 229 230 226 224 228 232 233 236 237 240 248 253 259 264 266 266 269 272 272 274 273 271 271 270 264 258 258 264 270 272 272 270 269 268 267 270 271 269 264 258 253 252 252 254 255 255 255 255 256 256 255 255 255 255 254 255 254 255 254 253 252 252 252 251 251 251 252 253 254 254 256 259 261 261 261 261 260 259 257 255 254 254
224 228 227 227 229 225 222 225 229 232 233 235 237 243 251 257 266 272 270 268 269 272 275 278 277 271 271 273 270 266 264 264 267 269 270 270 268 267 271 273 271 267 262 258 255 251 250 251 252 253 254 255 255 255 255 255 256 255 255 255 255 255 255 254 253 253 252 252 252 251 252 253 254 255 257 258 260 261 262 263 262 261 259 256 253 251
228 230 231 231 230 225 224 228 231 232 235 237 240 246 251 257 269 273 271 271 272 277 280 284 285 277 271 272 271 271 270 268 268 267 266 267 266 266 268 269 269 270 269 264 258 254 252 251 251 252 254 255 256 257 257 257 258 258 258 257 257 257 256 255 254 253 252 252 252 252 252 253 253 254 255 256 259 261 264 264 263 261 259 256 253 249
233 234 236 235 232 227 225 227 230 233 237 240 243 244 249 255 259 263 270 277 281 284 284 289 293 283 276 275 273 272 271 270 269 266 265 265 265 265 266 269 274 278 278 272 264 260 257 255 254 255 257 258 260 262 263 262 262 261 260 259 258 257 257 257 256 254 253 252 252 252 252 254 254 255 255 257 259 262 264 265 264 261 258 256 253 249
234 234 236 235 233 229 227 229 231 232 238 243 244 240 243 250 255 263 273 284 289 288 287 292 299 286 281 277 272 273 273 271 269 268 269 265 261 264 268 274 281 284 285 281 272 266 263 262 261 262 264 265 265 266 267 267 266 264 263 262 261 260 259 259 258 257 255 254 253 252 252 254 255 256 257 259 259 260 262 263 263 262 259 255 251 248
234 232 231 232 233 229 225 226 226 226 233 239 241 241 243 251 259 267 274 282 282 280 285 286 283 284 285 279 271 274 276 271 270 273 272 263 258 264 271 279 286 287 287 285 279 271 267 265 264 265 266 266 267 267 268 268 268 267 266 266 265 265 264 263 262 260 258 257 255 254 253 253 255 255 256 257 258 258 259 261 262 262 260 256 252 248
232 229 227 228 231 232 225 220 221 225 233 240 246 252 253 257 261 264 271 275 273 278 282 281 278 275 277 276 274 277 275 270 271 273 267 260 260 264 272 282 289 290 288 285 281 274 268 264 263 262 262 262 263 266 267 269 269 268 267 267 267 266 266 266 266 264 263 261 258 256 255 255 256 255 255 255 256 257 259 261 261 262 261 259 256 252
235 231 229 231 234 236 232 227 232 238 243 249 256 259 254 255 258 263 272 271 276 284 280 275 279 264 264 274 278 277 275 274 278 273 260 258 262 267 275 283 287 287 286 284 280 276 271 267 264 263 263 264 264 265 267 269 269 269 268 268 267 267 267 267 267 267 265 264 262 259 258 257 256 256 255 254 255 256 259 261 262 263 262 260 258 255
239 234 233 234 236 237 234 233 239 242 246 251 254 253 248 252 259 264 269 268 277 282 263 260 277 270 274 278 277 275 275 279 283 273 261 263 266 272 276 277 282 285 285 283 280 278 275 271 268 267 266 266 266 266 267 268 269 270 270 270 269 269 269 269 267 266 265 264 263 262 261 259 257 256 256 256 256 257 259 262 264 264 263 261 258 255
238 235 233 233 233 233 232 232 234 237 241 243 241 241 244 254 260 262 263 266 279 274 244 259 272 265 277 280 275 275 276 280 280 273 275 276 271 271 263 262 277 284 284 282 278 274 274 274 273 271 269 267 267 267 267 268 269 270 271 272 272 272 271 270 268 267 265 263 263 263 262 260 258 257 257 257 258 259 260 262 265 265 262 259 256 253
235 233 233 234 234 232 232 229 228 230 233 233 230 228 235 252 259 262 260 255 257 253 223 257 258 246 248 252 268 276 277 282 284 281 280 271 259 256 244 250 271 279 279 279 275 273 273 273 274 273 272 270 269 268 268 268 270 271 273 272 271 271 271 270 268 267 265 263 262 262 262 262 261 260 260 260 260 261 261 262 264 264 261 257 254 251
237 236 234 235 236 235 233 229 224 224 226 227 224 216 212 232 253 247 243 226 237 245 250 255 233 237 253 260 269 277 281 284 282 277 267 236 222 260 257 248 261 270 274 276 275 277 278 276 274 273 272 271 269 270 270 269 270 270 271 271 270 271 271 271 269 267 265 263 262 261 260 261 261 261 261 261 261 261 262 263 264 264 260 255 252 249
239 241 237 236 237 237 235 231 227 225 225 226 225 217 204 194 220 230 212 292 267 251 247 243 234 248 261 269 275 277 279 280 274 273 252 204 204 268 273 248 252 261 265 271 272 276 279 279 276 271 270 271 270 271 272 270 269 268 268 269 269 271 271 272 271 268 267 265 263 261 259 258 259 260 259 260 261 261 262 263 263 262 258 253 250 246
236 241 240 238 239 240 241 239 239 241 241 240 238 231 222 218 223 227 197 217 268 267 227 212 219 248 258 267 273 271 270 274 277 281 272 237 244 277 270 240 245 256 257 262 266 272 278 277 274 269 268 270 270 270 271 270 269 268 268 269 269 270 270 270 270 268 268 267 264 262 260 259 258 257 257 258 260 260 261 262 263 262 257 251 248 246
235 243 247 244 243 245 246 245 245 243 241 243 239 229 229 231 233 238 243 239 233 39 229 214 236 256 261 268 270 270 272 274 279 282 280 274 273 275 252 227 234 248 251 255 263 273 277 273 269 268 267 269 269 270 271 270 270 269 269 270 271 272 272 271 271 270 269 267 265 263 262 261 259 256 256 258 259 261 261 262 262 259 254 250 248 245
234 245 249 245 243 244 243 243 242 236 231 232 227 223 230 235 232 231 243 249 237 269 255 240 254 264 270 275 272 272 275 275 278 279 277 276 274 267 254 241 236 238 244 249 260 273 274 269 268 268 269 271 272 273 274 273 273 272 271 271 271 271 271 271 271 270 269 267 266 265 263 262 260 257 256 257 259 260 260 260 258 255 251 249 248 246
238 248 251 245 241 240 238 236 234 231 230 227 224 228 233 235 230 224 226 243 215 242 259 243 251 261 266 271 271 271 276 277 277 274 271 274 279 278 277 268 244 234 235 241 253 265 266 265 266 267 270 273 275 277 277 276 276 275 274 274 273 272 271 270 270 270 269 269 268 266 265 264 261 258 256 256 257 259 260 259 255 252 250 249 249 247
240 245 252 247 239 237 234 230 225 225 226 225 228 233 228 221 215 210 205 216 222 211 255 246 247 254 256 259 266 271 275 278 278 278 279 281 283 281 272 257 254 251 249 251 254 255 258 260 261 264 270 275 279 282 283 282 280 278 277 277 277 276 275 274 273 272 271 270 269 268 267 265 262 259 258 257 258 260 263 262 256 251 250 250 250 248
238 238 248 245 238 232 224 221 221 222 220 219 226 230 225 221 212 207 209 214 225 206 225 247 243 252 257 260 266 272 275 279 281 281 282 282 273 256 233 242 277 285 279 271 259 251 252 254 256 261 268 276 283 286 287 287 286 282 279 277 278 278 278 278 276 275 273 271 270 269 267 266 264 261 261 260 261 261 263 263 258 252 249 250 250 249
235 235 241 241 231 222 221 227 231 232 227 222 223 224 224 224 217 219 224 220 222 223 223 242 250 256 259 263 268 272 275 278 279 277 276 270 243 218 217 261 292 293 283 273 265 260 255 251 253 260 269 279 286 286 287 291 293 288 281 277 276 276 276 277 276 275 274 272 271 269 268 266 264 262 261 261 261 261 262 262 260 255 250 249 250 249
233 233 236 235 230 230 237 243 244 242 240 237 236 235 236 232 222 219 229 223 223 227 226 230 270 261 261 264 268 271 275 276 274 271 272 263 236 225 245 283 294 282 268 269 275 273 261 253 253 261 275 285 290 290 288 293 298 292 283 279 276 274 274 274 274 273 273 272 272 271 269 267 265 263 261 261 260 260 260 260 260 257 253 250 250 250
239 235 234 235 238 242 246 248 244 242 241 240 241 243 245 241 228 217 212 222 222 224 234 240 263 261 260 263 267 270 273 273 272 274 273 258 243 251 271 290 288 266 260 275 284 275 259 250 252 267 284 292 296 295 288 291 298 293 284 282 278 275 274 273 272 272 272 272 271 271 270 268 267 265 263 262 261 260 259 259 259 258 255 251 250 249
235 228 230 236 243 246 247 248 247 244 240 235 236 238 238 237 232 225 226 236 229 219 228 230 247 259 259 260 264 268 270 271 273 277 272 260 263 273 282 287 277 254 256 277 285 276 258 247 254 275 292 300 300 296 289 290 296 292 286 284 281 278 276 274 274 273 272 271 270 269 269 269 268 267 266 265 263 261 260 259 259 258 255 251 250 249
232 226 228 229 239 246 244 244 242 238 235 233 236 238 236 237 238 233 231 237 241 236 234 223 230 255 258 259 262 266 270 272 274 276 272 271 278 284 282 276 263 254 265 277 281 277 262 251 258 279 294 301 298 292 290 293 295 292 289 287 283 279 276 274 274 274 273 273 271 270 270 270 269 269 268 267 265 262 260 259 259 258 255 251 250 250
241 236 232 224 217 226 230 231 235 238 236 234 238 241 240 239 237 234 232 228 231 242 239 228 236 255 260 261 262 266 270 273 275 276 275 278 283 284 278 270 264 265 268 270 275 277 266 255 260 277 290 295 290 288 292 294 293 292 291 288 284 281 277 274 272 272 273 273 272 272 271 270 270 269 268 267 265 262 260 259 258 257 255 252 251 251
243 241 238 235 236 239 244 248 252 252 245 241 245 248 246 243 239 236 231 224 231 242 240 237 245 256 261 262 262 265 267 270 274 275 277 280 282 280 274 271 272 269 264 265 272 274 265 256 260 277 289 289 286 289 293 293 291 291 290 288 285 282 279 276 273 271 271 272 273 274 272 271 269 268 268 266 264 262 260 258 257 256 254 253 252 253
244 242 241 242 245 248 252 256 259 262 259 256 259 258 255 251 243 233 228 233 240 239 240 248 251 251 257 264 265 265 266 269 272 274 278 282 281 278 274 272 269 264 263 269 271 266 257 253 261 279 288 285 285 289 291 291 290 288 287 287 284 281 279 278 276 274 273 273 274 274 273 271 268 267 267 266 265 264 262 259 257 256 255 254 254 255
245 245 246 245 247 251 253 255 256 259 261 262 263 263 262 259 249 239 238 246 246 236 241 256 258 253 259 267 266 263 266 270 272 274 277 280 279 277 274 266 258 257 265 272 270 259 249 252 267 281 285 282 284 287 288 288 287 285 285 285 283 281 280 279 278 277 277 276 275 274 273 271 269 267 266 266 266 266 264 261 257 256 256 256 256 256
243 246 249 248 248 251 253 253 254 255 258 260 260 260 259 258 256 253 254 258 255 248 251 260 263 262 263 265 263 262 265 269 270 271 272 274 277 276 269 260 258 263 269 269 262 251 247 261 277 281 279 280 282 284 286 286 285 283 283 283 282 282 280 280 280 280 279 278 276 275 274 273 271 269 266 266 267 267 266 263 260 257 256 256 257 257
242 244 248 248 247 251 252 252 252 253 256 259 260 259 258 256 255 255 256 258 256 253 255 256 258 261 262 260 261 263 264 266 268 269 270 272 276 277 273 269 268 269 270 263 254 251 258 271 279 276 274 277 277 280 284 283 282 281 281 282 282 282 280 280 280 281 281 279 276 275 274 274 273 271 269 267 267 267 266 265 262 259 257 255 256 257
245 244 249 248 242 246 252 253 252 253 255 259 259 257 255 253 252 252 254 256 254 253 255 252 251 256 259 260 263 264 265 268 269 271 272 273 275 278 279 277 274 272 270 264 261 263 267 272 272 271 274 275 274 278 280 278 278 281 281 281 281 281 281 281 282 283 282 279 276 275 274 274 273 272 270 268 267 266 266 265 264 262 260 257 257 257
255 251 252 248 239 245 254 255 254 255 254 253 254 253 251 250 252 254 256 258 257 255 254 251 253 259 262 264 267 267 267 270 271 272 275 276 278 281 281 278 274 272 271 270 271 272 270 268 268 272 276 275 273 276 277 275 277 279 279 279 279 280 281 281 282 282 281 278 276 274 274 274 273 272 271 268 266 265 265 264 264 263 262 260 259 258
261 257 255 250 240 245 257 259 256 251 241 249 256 257 255 254 253 254 255 256 257 256 255 257 261 264 265 265 267 268 270 273 274 276 278 279 280 281 279 276 274 273 273 274 276 272 266 266 270 274 276 274 272 274 275 275 276 276 275 275 276 277 277 277 277 278 278 278 277 276 276 276 276 275 273 269 267 265 264 264 264 263 263 262 261 261
257 256 254 251 244 247 258 260 250 230 244 258 264 265 262 261 259 257 257 259 260 259 259 261 263 263 264 265 266 269 272 274 276 278 279 279 279 279 278 276 275 275 274 274 273 270 265 266 271 274 274 271 270 272 274 274 273 272 271 271 271 271 272 272 273 275 276 278 277 277 278 278 278 277 275 272 269 266 265 264 264 264 263 263 263 263
250 252 250 248 246 247 248 243 236 250 259 262 266 266 264 263 261 256 255 260 263 262 259 260 264 266 267 268 269 271 272 275 278 279 279 278 277 277 276 275 274 274 273 270 268 267 266 268 271 273 272 269 269 272 272 271 270 269 270 269 268 268 268 269 271 272 274 275 275 275 276 277 277 276 275 273 271 268 267 265 263 263 263 263 264 264
244 246 246 244 243 241 237 238 248 258 261 261 263 265 264 264 263 257 254 262 271 271 265 264 267 270 271 272 273 274 275 278 281 279 274 274 276 275 274 274 273 271 268 265 264 265 267 270 271 270 269 268 270 271 270 270 270 270 271 270 268 267 267 267 269 270 271 272 272 273 273 273 274 274 273 272 271 270 268 266 264 263 263 263 264 263
242 242 242 240 240 240 238 242 250 251 253 256 260 264 267 268 269 265 258 263 270 270 266 266 268 269 271 274 277 278 278 279 279 276 275 278 281 278 274 272 272 270 266 263 263 264 265 267 267 266 267 268 269 269 269 271 271 271 271 270 269 268 267 267 268 269 270 271 270 271 271 271 271 271 271 271 270 269 268 267 266 265 264 263 263 262
242 241 240 238 237 236 233 230 229 235 247 255 260 264 266 269 272 266 253 257 264 264 264 266 269 271 275 278 280 278 275 272 273 279 287 292 291 284 275 271 270 270 267 263 262 263 264 265 265 265 266 267 267 268 269 271 271 271 271 270 269 269 268 269 269 269 270 270 269 269 270 270 270 270 270 269 269 268 268 267 267 265 264 263 262 261
236 236 235 234 234 234 232 230 233 240 247 254 260 261 262 268 272 257 231 249 260 261 266 272 275 279 284 286 282 276 270 271 277 288 295 295 292 285 273 267 266 266 264 262 261 262 263 264 264 264 265 265 266 267 268 269 270 270 270 269 269 269 269 269 269 270 270 270 269 269 269 269 269 269 269 269 268 268 267 267 266 265 264 263 262 261
232 231 231 232 233 234 233 234 239 245 249 254 258 260 263 266 258 228 233 259 266 268 275 281 283 286 288 287 281 276 276 280 286 290 287 286 288 282 266 257 258 259 260 260 260 260 261 260 261 262 263 263 265 266 267 267 267 267 267 267 268 269 270 270 270 270 269 269 269 269 269 269 269 269 269 269 268 267 267 266 265 265 264 264 264 263
229 228 228 230 233 234 234 236 241 247 252 257 261 261 259 253 237 237 258 271 274 276 280 282 283 284 284 284 282 281 284 288 289 285 279 279 283 279 265 259 259 257 256 258 259 259 258 258 260 262 263 263 264 264 264 264 264 264 265 266 268 269 270 270 270 269 269 269 268 268 269 269 269 268 268 268 267 267 266 265 265 265 265 265 264 263
240 232 225 226 230 233 234 235 238 248 255 261 264 261 255 250 251 259 267 271 273 277 280 281 281 281 281 282 283 284 286 288 288 284 277 274 275 272 269 270 269 263 258 259 259 258 258 260 263 264 264 263 262 261 260 261 262 264 265 267 268 269 269 269 270 270 269 268 267 266 266 266 266 266 266 266 267 266 265 266 267 268 269 267 264 262
254 247 239 236 234 232 231 230 231 241 249 256 260 258 256 260 266 269 268 268 272 275 276 277 278 278 280 282 283 284 284 284 286 283 276 273 275 273 271 271 270 263 258 256 256 257 260 263 265 264 263 261 259 258 258 259 262 264 266 267 268 268 268 267 267 267 267 266 266 265 265 266 266 267 267 268 268 267 268 269 270 272 273 271 266 262
253 252 251 245 235 230 233 236 238 242 244 244 248 252 255 259 262 265 266 267 270 272 272 272 273 274 277 279 279 279 281 282 284 281 275 275 278 275 268 266 263 259 256 255 257 260 263 263 262 260 258 256 256 258 260 262 263 264 265 266 267 266 265 264 264 265 266 268 270 272 273 274 274 273 272 271 271 270 270 270 270 270 268 265 261 257
258 259 261 259 253 252 253 249 246 250 252 249 248 252 255 256 256 260 263 265 267 270 272 272 273 274 275 275 274 276 279 281 281 278 276 277 275 267 259 257 257 257 258 260 262 263 262 259 256 253 253 254 255 258 261 262 263 263 263 264 264 263 263 264 264 266 269 273 277 279 280 280 278 276 274 272 271 270 268 265 263 260 257 255 253 251
262 263 265 267 269 271 269 263 260 266 269 267 263 261 261 259 258 258 261 263 265 268 269 270 273 274 274 273 273 274 276 276 276 276 275 272 266 257 252 251 252 255 259 262 263 261 256 252 250 251 253 255 256 258 259 260 261 262 262 262 263 264 266 267 269 272 275 278 280 281 280 278 275 272 270 268 266 264 260 256 253 249 246 245 244 244
263 266 268 269 270 274 275 274 273 276 279 281 282 280 277 271 265 261 260 261 263 264 263 265 269 272 272 271 271 271 270 270 271 270 266 260 256 252 250 250 253 258 261 262 260 256 252 251 252 253 254 254 253 254 255 258 260 262 263 264 265 267 269 271 273 275 276 278 278 277 275 272 269 266 264 262 259 256 252 246 242 238 235 233 234 235
263 266 270 273 274 275 276 276 277 281 283 282 283 284 283 282 280 274 265 261 261 260 259 261 266 269 270 270 270 268 267 267 266 262 254 249 248 247 247 251 255 258 259 257 253 249 249 251 252 251 250 249 250 251 254 258 262 265 267 268 270 271 271 273 274 275 275 275 274 272 270 266 263 259 255 250 247 244 240 236 234 232 230 228 228 230
266 268 272 277 278 277 279 280 282 288 289 283 280 281 280 279 282 284 278 269 264 262 260 261 263 266 268 268 266 263 261 259 256 249 243 240 241 242 245 249 252 252 251 248 245 245 246 246 247 247 247 247 249 252 255 259 262 266 268 270 271 272 273 273 273 274 274 272 269 265 262 257 253 248 243 239 237 237 236 235 235 236 235 232 230 230
266 271 275 280 280 280 284 286 287 290 289 284 281 281 280 277 277 281 284 281 273 269 265 262 260 262 264 263 260 256 253 249 245 241 239 238 239 240 242 243 242 241 238 236 236 238 240 242 245 247 248 250 252 254 256 258 261 264 267 270 272 272 272 272 272 270 267 264 260 255 251 247 244 243 242 242 243 244 245 243 241 240 239 237 234 233
Height
3172 3173 3173 3174 3176 3177 3178 3179 3179 3179 3180 3180 3180 3181 3181 3181 3181 3181 3181 3180 3180 3179 3178 3177 3176 3174 3175 3176 3177 3177 3175 3172 3173 3173 3173 3174 3174 3174 3173 3173 3172 3172 3173 3174 3173 3173 3172 3172 3171 3171 3170 3170 3170 3170 3170 3170 3171 3171 3172 3172 3172 3173 3173 3173 3174 3174 3174 3174 3175 3175 3175 3175 3176 3175 3175 3175 3175 3175 3175 3175 3175 3175 3176 3176 3176 3176
3170 3171 3172 3174 3175 3176 3177 3177 3177 3177 3178 3178 3179 3179 3179 3179 3180 3180 3179 3179 3179 3177 3175 3175 3174 3171 3172 3174 3174 3174 3172 3170 3171 3170 3170 3171 3171 3171 3170 3170 3170 3169 3170 3170 3169 3169 3169 3168 3168 3167 3167 3167 3167 3167 3167 3167 3168 3168 3168 3168 3169 3169 3169 3170 3170 3171 3171 3171 3172 3172 3172 3172 3172 3172 3171 3171 3171 3171 3171 3171 3172 3172 3173 3173 3173 3173
3169 3170 3171 3173 3173 3174 3175 3175 3175 3176 3177 3177 3177 3178 3178 3178 3178 3178 3177 3177 3177 3175 3173 3173 3171 3168 3169 3170 3170 3171 3170 3168 3169 3168 3168 3168 3168 3168 3168 3167 3167 3166 3166 3166 3166 3166 3165 3164 3164 3163 3163 3163 3163 3163 3163 3163 3164 3164 3165 3165 3166 3166 3166 3166 3167 3167 3168 3168 3168 3168 3168 3168 3168 3168 3168 3168 3168 3168 3168 3168 3168 3169 3169 3169 3170 3170
3167 3168 3170 3171 3172 3173 3173 3173 3174 3174 3175 3175 3176 3176 3176 3176 3177 3177 3176 3175 3175 3174 3172 3171 3169 3166 3166 3167 3167 3167 3166 3166 3167 3166 3165 3165 3165 3165 3165 3164 3163 3163 3163 3163 3162 3162 3161 3160 3160 3159 3159 3159 3158 3158 3159 3160 3160 3161 3161 3162 3162 3163 3163 3163 3163 3164 3164 3164 3164 3164 3165 3164 3164 3165 3165 3165 3165 3164 3165 3165 3165 3166 3166 3166 3166 3166
3166 3167 3168 3169 3170 3171 3171 3172 3172 3173 3173 3174 3174 3174 3175 3175 3175 3175 3174 3173 3173 3172 3171 3170 3167 3163 3163 3164 3163 3164 3163 3163 3164 3163 3163 3163 3163 3163 3162 3161 3161 3160 3160 3159 3159 3158 3157 3156 3156 3155 3155 3155 3155 3155 3156 3157 3157 3157 3158 3158 3158 3159 3159 3159 3160 3160 3160 3160 3160 3160 3160 3160 3160 3161 3161 3161 3162 3162 3161 3161 3162 3162 3162 3162 3163 3163
3164 3165 3166 3167 3168 3169 3170 3170 3171 3172 3172 3172 3172 3173 3174 3174 3173 3173 3173 3172 3171 3170 3169 3169 3167 3161 3160 3160 3160 3160 3160 3160 3161 3160 3160 3161 3160 3159 3158 3158 3158 3157 3156 3156 3155 3154 3153 3153 3153 3152 3152 3152 3152 3153 3153 3153 3154 3154 3154 3154 3154 3155 3155 3155 3156 3156 3156 3156 3156 3156 3156 3156 3156 3157 3157 3158 3158 3158 3158 3157 3157 3158 3158 3159 3159 3159
3161 3163 3165 3166 3166 3167 3168 3168 3170 3171 3171 3171 3171 3172 3172 3172 3172 3172 3172 3171 3170 3169 3167 3168 3168 3163 3157 3156 3156 3157 3157 3156 3157 3157 3158 3158 3157 3156 3155 3155 3155 3154 3153 3152 3152 3151 3151 3150 3150 3150 3150 3150 3150 3150 3150 3150 3150 3150 3151 3151 3151 3151 3152 3152 3152 3152 3152 3152 3152 3152 3153 3153 3152 3153 3154 3154 3154 3154 3154 3153 3153 3154 3154 3155 3155 3156
3158 3161 3162 3163 3164 3165 3166 3167 3169 3170 3170 3169 3169 3171 3171 3170 3171 3170 3170 3170 3168 3167 3165 3164 3167 3165 3157 3153 3153 3154 3153 3153 3154 3156 3155 3155 3154 3153 3153 3152 3152 3151 3150 3149 3149 3148 3148 3148 3147 3147 3147 3147 3147 3147 3147 3147 3147 3147 3147 3147 3147 3147 3147 3148 3148 3148 3148 3148 3148 3148 3148 3148 3149 3150 3151 3150 3150 3149 3149 3149 3150 3150 3150 3151 3151 3152
3157 3159 3160 3161 3162 3162 3164 3166 3168 3168 3168 3167 3168 3169 3169 3169 3169 3169 3169 3168 3167 3166 3163 3161 3164 3163 3151 3147 3151 3150 3149 3150 3151 3153 3153 3152 3151 3150 3150 3150 3149 3148 3147 3146 3146 3146 3146 3146 3145 3145 3145 3145 3145 3145 3144 3144 3144 3144 3144 3144 3144 3144 3144 3144 3144 3143 3144 3144 3144 3144 3144 3144 3145 3145 3146 3146 3145 3145 3145 3145 3146 3146 3146 3147 3147 3148
3156 3157 3158 3159 3159 3160 3162 3165 3165 3166 3166 3165 3167 3167 3168 3168 3168 3168 3167 3166 3166 3163 3159 3159 3163 3160 3144 3139 3146 3146 3145 3148 3148 3149 3150 3149 3149 3148 3148 3148 3147 3146 3145 3144 3144 3143 3143 3143 3143 3143 3143 3143 3142 3142 3142 3142 3142 3141 3141 3141 3141 3141 3140 3140 3140 3139 3139 3139 3139 3140 3140 3140 3141 3141 3141 3141 3141 3142 3142 3141 3142 3142 3143 3143 3143 3143
3153 3155 3156 3156 3156 3158 3160 3162 3162 3163 3163 3163 3165 3165 3167 3167 3167 3167 3165 3165 3166 3160 3156 3157 3160 3161 3145 3132 3138 3142 3142 3146 3146 3146 3148 3146 3146 3146 3146 3145 3144 3144 3143 3142 3142 3141 3141 3141 3140 3140 3140 3140 3140 3139 3139 3139 3139 3139 3138 3138 3138 3137 3137 3136 3136 3135 3135 3135 3135 3135 3136 3136 3137 3137 3137 3138 3137 3138 3138 3138 3138 3139 3139 3139 3139 3139
3150 3152 3153 3153 3154 3156 3157 3158 3159 3160 3160 3161 3163 3165 3167 3166 3166 3166 3163 3165 3164 3156 3154 3155 3157 3160 3145 3128 3132 3137 3139 3143 3143 3143 3144 3144 3144 3144 3144 3143 3142 3142 3141 3140 3140 3139 3139 3138 3137 3137 3137 3137 3137 3137 3137 3136 3136 3136 3135 3135 3135 3134 3133 3133 3132 3132 3131 3131 3131 3132 3132 3132 3132 3133 3134 3134 3134 3134 3134 3134 3134 3134 3134 3134 3135 3135
3146 3148 3150 3151 3151 3152 3154 3155 3157 3157 3158 3159 3161 3163 3166 3166 3165 3164 3161 3162 3160 3154 3153 3154 3156 3154 3136 3124 3130 3134 3135 3138 3138 3138 3140 3140 3142 3142 3142 3141 3140 3140 3139 3138 3138 3136 3136 3135 3134 3134 3134 3134 3134 3134 3134 3134 3133 3133 3132 3132 3131 3131 3130 3129 3129 3128 3128 3127 3127 3128 3128 3128 3128 3129 3130 3130 3130 3129 3129 3130 3130 3130 3130 3130 3131 3131
3144 3144 3146 3146 3146 3148 3150 3152 3153 3154 3156 3157 3158 3160 3161 3163 3164 3161 3159 3159 3156 3152 3151 3153 3155 3146 3129 3124 3129 3131 3132 3134 3133 3135 3136 3137 3139 3140 3140 3139 3138 3138 3137 3136 3135 3134 3133 3132 3132 3132 3131 3131 3131 3131 3131 3131 3130 3130 3129 3128 3128 3127 3126 3126 3126 3125 3124 3124 3124 3123 3123 3123 3123 3125 3125 3125 3125 3125 3125 3125 3125 3126 3126 3126 3127 3128
3140 3138 3139 3141 3142 3144 3146 3148 3150 3152 3154 3155 3155 3157 3156 3156 3157 3155 3155 3155 3152 3150 3150 3152 3151 3137 3125 3124 3127 3128 3130 3131 3130 3132 3134 3135 3135 3136 3137 3136 3136 3135 3134 3133 3132 3131 3130 3129 3129 3129 3129 3128 3128 3128 3128 3128 3127 3127 3126 3125 3124 3124 3123 3123 3122 3121 3121 3120 3120 3120 3119 3119 3119 3120 3121 3120 3120 3121 3120 3121 3121 3122 3122 3122 3123 3124
3136 3133 3133 3138 3139 3141 3143 3145 3148 3150 3152 3151 3152 3154 3151 3149 3151 3152 3152 3151 3150 3151 3149 3147 3140 3127 3121 3122 3123 3125 3126 3127 3129 3129 3129 3131 3131 3131 3132 3133 3133 3132 3131 3130 3129 3129 3128 3127 3126 3126 3126 3126 3126 3125 3125 3125 3124 3124 3123 3122 3121 3120 3119 3119 3119 3118 3118 3117 3117 3116 3116 3116 3116 3116 3116 3116 3117 3117 3117 3117 3117 3117 3118 3118 3118 3119
3132 3129 3131 3135 3136 3138 3140 3141 3143 3145 3146 3147 3147 3146 3144 3145 3148 3151 3150 3149 3151 3151 3144 3140 3133 3124 3121 3117 3115 3120 3122 3123 3126 3125 3125 3127 3126 3127 3128 3129 3130 3129 3128 3127 3127 3127 3125 3124 3123 3123 3123 3123 3123 3123 3122 3122 3121 3121 3120 3119 3118 3117 3116 3116 3115 3114 3114 3113 3113 3113 3112 3112 3112 3112 3112 3113 3113 3113 3112 3112 3112 3113 3113 3113 3114 3114
3129 3128 3127 3130 3132 3134 3136 3137 3139 3140 3141 3141 3140 3139 3141 3145 3146 3148 3149 3148 3149 3147 3139 3133 3128 3124 3122 3114 3109 3115 3118 3119 3122 3122 3123 3124 3123 3124 3124 3125 3125 3125 3125 3125 3125 3124 3123 3121 3121 3121 3121 3120 3120 3120 3119 3119 3118 3117 3117 3116 3115 3114 3113 3113 3112 3111 3111 3110 3109 3109 3109 3108 3108 3108 3108 3109 3109 3108 3108 3108 3108 3108 3109 3109 3110 3111
3127 3126 3125 3127 3129 3130 3133 3134 3134 3135 3136 3136 3135 3137 3140 3142 3142 3143 3145 3143 3143 3142 3135 3127 3123 3121 3117 3109 3107 3112 3115 3116 3118 3118 3119 3120 3120 3121 3121 3122 3122 3121 3120 3121 3121 3121 3120 3119 3119 3118 3118 3117 3117 3117 3116 3115 3115 3114 3113 3112 3111 3111 3110 3109 3109 3108 3107 3106 3106 3106 3105 3105 3104 3104 3104 3104 3104 3104 3104 3104 3104 3104 3105 3105 3106 3106
3124 3124 3123 3123 3125 3127 3128 3128 3127 3127 3129 3132 3133 3135 3137 3137 3137 3137 3136 3135 3133 3133 3129 3123 3118 3113 3108 3106 3108 3111 3112 3113 3114 3114 3115 3116 3117 3118 3118 3119 3119 3118 3116 3116 3117 3117 3117 3117 3116 3116 3115 3115 3114 3114 3113 3112 3112 3111 3110 3109 3108 3108 3107 3106 3105 3104 3104 3103 3102 3102 3101 3101 3100 3100 3100 3100 3100 3100 3100 3100 3100 3100 3101 3101 3101 3102
3121 3121 3120 3119 3121 3122 3121 3121 3121 3122 3125 3128 3129 3131 3131 3132 3133 3132 3130 3128 3127 3126 3124 3121 3115 3107 3103 3106 3108 3109 3110 3110 3110 3111 3112 3114 3115 3115 3115 3115 3116 3115 3114 3113 3114 3114 3113 3113 3113 3113 3112 3112 3112 3111 3110 3109 3108 3107 3106 3105 3105 3104 3104 3103 3102 3101 3100 3099 3099 3098 3098 3097 3097 3096 3096 3096 3095 3096 3096 3096 3096 3096 3096 3096 3097 3098
3116 3116 3116 3116 3115 3115 3115 3116 3118 3120 3121 3123 3123 3123 3124 3124 3126 3127 3124 3122 3123 3122 3121 3120 3114 3104 3101 3105 3106 3106 3107 3107 3107 3109 3110 3112 3112 3112 3112 3112 3112 3112 3111 3111 3111 3111 3110 3110 3109 3110 3109 3109 3108 3108 3107 3106 3105 3104 3103 3102 3101 3100 3100 3099 3098 3097 3096 3096 3095 3095 3094 3093 3093 3092 3092 3091 3091 3091 3092 3092 3092 3092 3092 3092 3093 3093
3112 3112 3112 3111 3109 3110 3111 3113 3115 3116 3118 3120 3119 3118 3119 3118 3118 3119 3117 3117 3119 3120 3119 3120 3114 3102 3099 3103 3103 3102 3103 3103 3104 3106 3108 3110 3110 3110 3110 3109 3109 3109 3109 3110 3109 3108 3107 3107 3106 3106 3106 3106 3105 3104 3103 3102 3101 3100 3099 3098 3097 3097 3096 3095 3094 3093 3093 3092 3091 3091 3090 3090 3089 3088 3088 3087 3087 3087 3087 3087 3087 3087 3087 3088 3088 3088
3108 3108 3108 3107 3107 3107 3109 3110 3111 3113 3114 3114 3112 3112 3114 3113 3113 3115 3115 3116 3116 3115 3116 3118 3112 3100 3096 3100 3100 3098 3098 3100 3101 3103 3105 3107 3108 3108 3107 3106 3106 3106 3107 3107 3107 3106 3105 3104 3104 3103 3102 3102 3101 3100 3099 3098 3097 3096 3095 3094 3093 3093 3092 3091 3090 3090 3089 3088 3087 3086 3086 3086 3085 3085 3084 3084 3083 3083 3083 3083 3083 3082 3082 3083 3083 3084
3103 3103 3104 3105 3105 3105 3105 3106 3106 3106 3106 3105 3105 3107 3109 3110 3112 3113 3114 3115 3113 3111 3112 3112 3106 3098 3095 3096 3096 3094 3094 3096 3098 3100 3101 3102 3104 3105 3105 3103 3103 3104 3104 3105 3104 3104 3102 3101 3101 3100 3099 3098 3096 3096 3095 3094 3092 3091 3090 3089 3089 3088 3087 3087 3086 3086 3084 3084 3083 3082 3082 3082 3081 3081 3080 3080 3079 3079 3078 3078 3078 3078 3078 3078 3079 3079
3098 3098 3099 3100 3100 3099 3097 3096 3095 3096 3099 3100 3101 3103 3104 3105 3107 3107 3108 3110 3107 3106 3105 3102 3099 3095 3092 3092 3092 3091 3091 3092 3094 3096 3096 3097 3099 3101 3102 3101 3101 3101 3101 3101 3101 3101 3100 3098 3097 3096 3095 3094 3093 3092 3091 3090 3088 3087 3086 3085 3084 3083 3083 3082 3082 3081 3080 3079 3079 3078 3078 3078 3077 3077 3076 3076 3075 3074 3074 3073 3073 3073 3073 3074 3074 3075
3095 3094 3094 3094 3093 3091 3089 3090 3091 3092 3094 3095 3096 3097 3098 3099 3101 3102 3104 3103 3101 3100 3097 3094 3095 3092 3086 3087 3089 3089 3089 3089 3090 3091 3091 3093 3095 3097 3098 3098 3097 3097 3096 3097 3097 3097 3096 3095 3094 3093 3092 3092 3090 3088 3087 3085 3084 3082 3081 3080 3079 3078 3078 3077 3077 3076 3076 3075 3075 3075 3074 3074 3073 3073 3072 3071 3071 3070 3069 3069 3069 3069 3069 3070 3070 3071
3091 3090 3090 3090 3088 3087 3087 3088 3090 3091 3090 3090 3091 3092 3093 3094 3096 3097 3096 3095 3097 3096 3089 3087 3089 3085 3081 3084 3086 3085 3086 3086 3087 3088 3088 3089 3091 3092 3094 3094 3093 3092 3092 3093 3093 3092 3092 3091 3090 3089 3089 3088 3086 3084 3082 3081 3079 3078 3077 3075 3074 3073 3073 3073 3072 3072 3072 3071 3071 3070 3070 3069 3069 3068 3068 3067 3066 3066 3066 3065 3065 3065 3065 3066 3067 3068
3086 3084 3085 3086 3085 3084 3084 3085 3087 3088 3086 3086 3087 3087 3089 3090 3090 3089 3088 3089 3091 3087 3080 3081 3084 3080 3080 3082 3080 3079 3083 3083 3083 3084 3085 3085 3086 3087 3089 3089 3089 3088 3088 3088 3087 3088 3087 3087 3086 3086 3085 3083 3081 3080 3078 3076 3074 3073 3072 3070 3069 3069 3068 3068 3068 3067 3068 3067 3067 3066 3065 3065 3064 3064 3063 3062 3062 3062 3062 3062 3061 3061 3061 3062 3063 3063
3081 3079 3080 3082 3081 3081 3080 3080 3082 3083 3082 3082 3082 3083 3085 3085 3084 3083 3082 3082 3081 3077 3075 3079 3079 3075 3076 3076 3073 3075 3079 3079 3077 3078 3079 3080 3081 3083 3084 3084 3084 3084 3084 3083 3083 3083 3083 3082 3082 3081 3079 3078 3076 3075 3073 3071 3070 3068 3067 3065 3064 3064 3063 3063 3062 3062 3063 3063 3062 3061 3060 3060 3060 3059 3059 3058 3058 3058 3058 3058 3057 3057 3057 3057 3058 3058
3076 3074 3075 3077 3078 3076 3074 3073 3075 3078 3077 3076 3077 3078 3080 3080 3078 3076 3073 3074 3074 3073 3074 3077 3074 3068 3067 3068 3070 3071 3072 3072 3071 3072 3073 3075 3077 3077 3077 3078 3078 3079 3079 3079 3079 3079 3078 3077 3076 3075 3074 3073 3071 3069 3068 3066 3064 3063 3062 3061 3060 3059 3058 3058 3057 3057 3057 3057 3057 3056 3056 3056 3055 3055 3054 3054 3054 3053 3053 3053 3053 3052 3053 3053 3053 3053
3072 3071 3071 3073 3073 3069 3067 3068 3069 3072 3073 3072 3071 3072 3071 3070 3068 3067 3067 3069 3070 3070 3071 3071 3067 3061 3059 3063 3067 3067 3066 3066 3066 3067 3069 3071 3071 3071 3071 3071 3073 3073 3074 3074 3074 3074 3073 3071 3070 3069 3068 3067 3065 3064 3063 3061 3059 3058 3058 3056 3055 3054 3053 3052 3052 3052 3052 3052 3051 3051 3051 3051 3050 3050 3050 3050 3049 3049 3049 3048 3048 3048 3048 3048 3048 3048
3067 3068 3068 3068 3067 3063 3062 3063 3066 3068 3068 3065 3062 3060 3059 3060 3062 3064 3065 3064 3064 3064 3064 3061 3057 3055 3058 3062 3061 3059 3059 3061 3061 3062 3064 3064 3064 3064 3064 3064 3066 3066 3067 3067 3067 3067 3066 3064 3064 3063 3061 3060 3059 3058 3057 3056 3055 3055 3053 3051 3050 3049 3048 3047 3047 3047 3046 3046 3046 3046 3046 3045 3045 3045 3045 3045 3045 3044 3044 3043 3043 3044 3043 3043 3043 3042
3061 3063 3064 3064 3062 3059 3059 3061 3063 3062 3058 3053 3051 3051 3053 3056 3060 3060 3057 3055 3054 3056 3056 3054 3054 3055 3056 3055 3053 3051 3054 3056 3057 3057 3058 3057 3056 3056 3056 3057 3058 3058 3059 3059 3058 3058 3058 3058 3057 3056 3054 3054 3053 3052 3051 3050 3050 3050 3049 3047 3046 3045 3044 3043 3042 3042 3041 3041 3040 3040 3040 3040 3039 3040 3040 3040 3039 3039 3039 3039 3039 3039 3038 3038 3037 3037
3057 3058 3059 3059 3058 3056 3058 3059 3055 3049 3045 3044 3045 3048 3051 3053 3054 3052 3049 3048 3049 3051 3052 3052 3050 3048 3046 3045 3046 3049 3051 3051 3051 3050 3049 3048 3048 3049 3049 3050 3050 3051 3051 3050 3050 3050 3050 3050 3049 3048 3048 3047 3046 3045 3045 3045 3045 3044 3043 3043 3041 3040 3039 3038 3038 3037 3036 3036 3035 3035 3034 3034 3034 3034 3034 3034 3034 3034 3034 3034 3033 3033 3033 3033 3032 3032
3053 3053 3053 3054 3053 3053 3054 3052 3044 3039 3039 3041 3042 3043 3045 3045 3045 3045 3043 3041 3042 3045 3048 3046 3041 3038 3038 3039 3043 3048 3048 3046 3044 3041 3039 3039 3041 3042 3042 3042 3043 3044 3043 3043 3043 3043 3042 3042 3041 3041 3041 3040 3039 3039 3039 3039 3039 3038 3038 3037 3036 3035 3034 3033 3033 3032 3031 3031 3030 3029 3029 3029 3029 3029 3029 3029 3029 3028 3029 3029 3028 3028 3028 3027 3027 3027
3047 3047 3048 3048 3046 3047 3047 3042 3038 3037 3036 3036 3036 3036 3038 3038 3038 3040 3038 3034 3035 3039 3041 3038 3033 3031 3032 3035 3040 3044 3043 3042 3038 3031 3028 3031 3035 3036 3036 3036 3036 3036 3035 3035 3035 3035 3035 3035 3034 3034 3034 3034 3034 3033 3033 3033 3032 3032 3031 3031 3030 3030 3029 3028 3028 3027 3026 3025 3025 3024 3024 3024 3024 3024 3024 3024 3024 3023 3023 3023 3023 3023 3022 3022 3022 3021
3040 3041 3042 3041 3039 3040 3040 3037 3036 3033 3027 3027 3029 3031 3033 3034 3034 3036 3034 3029 3030 3032 3032 3031 3028 3027 3029 3032 3037 3039 3039 3038 3031 3021 3020 3027 3031 3031 3031 3030 3030 3029 3028 3028 3028 3028 3028 3027 3027 3028 3028 3028 3028 3027 3027 3027 3026 3026 3025 3025 3025 3024 3023 3023 3022 3022 3021 3021 3020 3020 3020 3020 3019 3019 3019 3019 3018 3018 3018 3017 3017 3017 3017 3016 3016 3016
3032 3034 3037 3035 3032 3034 3032 3028 3026 3022 3018 3021 3025 3027 3030 3030 3030 3032 3029 3023 3023 3024 3025 3027 3025 3024 3027 3030 3032 3033 3033 3030 3024 3018 3019 3023 3024 3023 3024 3023 3023 3023 3022 3021 3021 3021 3021 3021 3021 3022 3022 3022 3022 3021 3021 3021 3021 3020 3020 3020 3019 3019 3018 3018 3017 3017 3016 3016 3015 3015 3015 3015 3014 3014 3014 3013 3013 3013 3012 3012 3012 3011 3011 3011 3010 3010
3025 3027 3028 3025 3023 3025 3024 3019 3016 3014 3014 3019 3021 3022 3024 3025 3026 3026 3020 3015 3018 3020 3020 3021 3021 3022 3025 3026 3026 3026 3025 3022 3019 3018 3019 3018 3017 3017 3017 3017 3017 3017 3016 3015 3015 3015 3016 3016 3016 3017 3017 3017 3017 3016 3016 3016 3016 3015 3015 3014 3014 3014 3013 3013 3012 3012 3011 3011 3011 3010 3010 3010 3009 3009 3009 3008 3008 3008 3007 3007 3007 3006 3006 3005 3005 3005
3017 3018 3017 3016 3015 3017 3016 3012 3009 3008 3010 3015 3018 3018 3020 3020 3017 3010 3005 3008 3015 3015 3015 3016 3016 3018 3021 3020 3019 3018 3017 3017 3017 3016 3015 3013 3013 3012 3012 3012 3012 3011 3010 3010 3010 3010 3011 3011 3012 3012 3012 3012 3012 3012 3012 3011 3011 3010 3010 3010 3009 3009 3008 3008 3007 3007 3007 3006 3006 3005 3005 3005 3004 3004 3004 3004 3003 3003 3003 3002 3002 3001 3001 3001 3001 3001
3011 3010 3009 3009 3010 3010 3009 3008 3005 3003 3005 3011 3013 3013 3014 3011 3004 2998 3000 3007 3010 3010 3011 3012 3010 3011 3013 3012 3012 3011 3011 3012 3013 3011 3010 3009 3009 3008 3008 3008 3008 3007 3006 3006 3005 3006 3007 3007 3007 3007 3007 3007 3007 3007 3007 3007 3006 3006 3005 3005 3005 3004 3003 3003 3002 3002 3002 3001 3001 3001 3000 3000 3000 3000 3000 2999 2999 2999 2998 2998 2998 2997 2997 2997 2997 2997
3007 3006 3004 3004 3005 3005 3004 3003 3002 2999 3001 3007 3008 3006 3004 3001 2999 3000 3002 3004 3005 3005 3007 3006 3004 3005 3005 3005 3005 3005 3005 3007 3007 3006 3006 3005 3004 3004 3003 3003 3003 3003 3002 3002 3002 3002 3003 3003 3003 3003 3003 3003 3003 3002 3002 3002 3002 3002 3001 3001 3000 2999 2999 2998 2998 2998 2997 2997 2997 2997 2996 2996 2996 2996 2996 2996 2996 2995 2995 2994 2994 2994 2994 2994 2994 2994
3002 3001 3000 3000 3001 3000 2997 2995 2995 2996 2998 3001 3001 2999 2997 2995 2998 3001 3000 2999 3001 3002 3002 3000 3000 3000 3000 3000 3000 3000 3000 3001 3001 3001 3001 3000 3000 2999 2998 2997 2997 2997 2997 2998 2998 2998 2998 2998 2999 2998 2998 2998 2998 2997 2998 2998 2997 2997 2997 2996 2996 2995 2994 2994 2994 2993 2993 2993 2993 2993 2993 2992 2992 2992 2992 2992 2992 2992 2991 2991 2991 2991 2991 2992 2992 2992
2996 2996 2995 2995 2995 2993 2990 2989 2990 2992 2994 2995 2994 2993 2992 2992 2994 2994 2993 2994 2996 2996 2995 2995 2995 2995 2995 2995 2994 2994 2994 2994 2994 2995 2996 2995 2995 2994 2993 2992 2991 2991 2992 2992 2993 2993 2993 2993 2993 2993 2993 2993 2993 2993 2993 2992 2992 2992 2991 2991 2991 2990 2990 2990 2990 2989 2989 2989 2989 2989 2989 2989 2989 2988 2988 2988 2988 2988 2988 2988 2988 2988 2989 2989 2989 2990
2992 2993 2991 2989 2988 2987 2985 2986 2988 2989 2989 2991 2991 2989 2988 2988 2989 2989 2987 2987 2988 2989 2989 2989 2989 2989 2990 2990 2989 2989 2988 2989 2989 2989 2989 2989 2989 2989 2989 2988 2987 2987 2987 2987 2987 2988 2988 2988 2988 2988 2989 2989 2989 2988 2987 2987 2987 2986 2986 2986 2986 2986 2986 2986 2986 2986 2986 2986 2986 2986 2986 2985 2985 2985 2985 2985 2985 2985 2985 2985 2985 2986 2986 2987 2987 2987
2988 2988 2987 2984 2984 2983 2981 2982 2986 2986 2985 2986 2986 2985 2984 2984 2984 2984 2983 2982 2983 2983 2983 2983 2983 2984 2984 2984 2984 2984 2983 2983 2984 2983 2984 2984 2984 2984 2984 2984 2983 2983 2982 2982 2982 2982 2982 2982 2983 2983 2984 2984 2984 2983 2983 2982 2982 2982 2982 2982 2982 2982 2982 2982 2982 2982 2982 2982 2983 2983 2982 2982 2982 2982 2982 2982 2982 2982 2982 2982 2982 2983 2983 2984 2984 2985
2983 2983 2981 2979 2979 2978 2976 2978 2982 2981 2980 2981 2980 2980 2980 2979 2978 2978 2977 2977 2977 2977 2976 2976 2977 2977 2977 2978 2978 2978 2978 2978 2978 2978 2978 2979 2979 2979 2979 2979 2979 2979 2978 2978 2978 2978 2978 2978 2979 2979 2980 2979 2979 2979 2978 2978 2978 2978 2978 2979 2978 2978 2978 2978 2978 2979 2979 2979 2979 2979 2979 2980 2980 2980 2980 2980 2979 2979 2979 2980 2980 2980 2981 2981 2982 2982
2979 2978 2976 2975 2974 2972 2972 2975 2977 2974 2973 2975 2976 2977 2976 2975 2973 2973 2972 2971 2971 2970 2970 2970 2971 2971 2971 2972 2972 2972 2973 2972 2972 2972 2973 2973 2973 2974 2973 2974 2974 2974 2973 2973 2973 2974 2974 2974 2975 2975 2975 2975 2974 2974 2974 2974 2974 2974 2975 2975 2975 2974 2974 2974 2974 2975 2975 2976 2976 2976 2977 2977 2977 2977 2977 2977 2977 2977 2977 2977 2978 2978 2978 2979 2979 2980
2973 2972 2973 2973 2970 2967 2968 2971 2972 2969 2967 2969 2972 2973 2972 2970 2969 2969 2968 2966 2965 2964 2964 2964 2965 2965 2966 2966 2967 2967 2967 2966 2967 2967 2966 2966 2967 2967 2967 2968 2968 2969 2968 2969 2969 2969 2970 2970 2970 2971 2971 2971 2970 2970 2970 2970 2970 2970 2970 2971 2971 2971 2970 2970 2970 2971 2972 2972 2973 2973 2974 2974 2975 2975 2976 2976 2976 2976 2976 2976 2976 2976 2976 2977 2977 2977
2968 2968 2970 2969 2965 2964 2965 2967 2968 2966 2963 2964 2967 2967 2966 2966 2965 2964 2964 2963 2961 2959 2958 2958 2959 2960 2961 2961 2961 2961 2960 2960 2961 2961 2961 2961 2961 2961 2961 2962 2962 2962 2963 2963 2964 2964 2965 2965 2966 2967 2967 2967 2967 2966 2966 2967 2967 2966 2967 2967 2967 2967 2967 2967 2967 2968 2968 2969 2970 2971 2972 2972 2973 2973 2974 2974 2974 2974 2974 2974 2974 2974 2974 2974 2975 2975